| time (UTC) | temp F | wind direction | speed MPH | gust MPH | rain 1hr in | rain 24hr in | rain mn in | humidity % | barometer mb |
| 20260506011633 | 74 | 287 | 1.0 | 2.0 | 0.00 | 0.15 | 0.15 | 59 | |
| 20260506001633 | 77 | 235 | 2.0 | 10.0 | 0.00 | 0.15 | 0.15 | 54 | |
| 20260505231628 | 79 | 187 | 0.0 | 2.0 | 0.00 | 0.15 | 0.15 | 55 | |
| 20260505221625 | 78 | 161 | 0.0 | 8.0 | 0.00 | 0.15 | 0.15 | 56 | |
| 20260505211621 | 78 | 286 | 8.0 | 13.0 | 0.00 | 0.15 | 0.15 | 61 | |
| 20260505201619 | 78 | 244 | 0.0 | 8.0 | 0.00 | 0.15 | 0.15 | 70 | |
| 20260505191615 | 77 | 12 | 0.0 | 10.0 | 0.00 | 0.15 | 0.15 | 82 | |
| 20260505181614 | 71 | 256 | 0.0 | 0.0 | 0.00 | 0.15 | 0.15 | 96 | |
| 20260505171614 | 70 | 26 | 0.0 | 0.0 | 0.00 | 0.15 | 0.15 | 99 | |
| 20260505161611 | 64 | 2 | 0.0 | 0.0 | 0.00 | 0.15 | 0.15 | 2 | |
| 20260505151611 | 59 | 89 | 0.0 | 0.0 | 0.00 | 0.15 | 0.15 | 38 | |
| 20260505121610 | 58 | 88 | 0.0 | 0.0 | 0.00 | 0.15 | 0.15 | 52 | |
| 20260505111607 | 57 | 88 | 0.0 | 0.0 | 0.00 | 0.14 | 0.14 | 51 | |
| 20260505101606 | 58 | 86 | 0.0 | 0.0 | 0.07 | 0.13 | 0.13 | 49 | |
| 20260505091601 | 58 | 113 | 0.0 | 0.0 | 0.00 | 0.09 | 0.09 | 48 | |
| 20260505081558 | 58 | 112 | 0.0 | 0.0 | 0.00 | 0.07 | 0.07 | 48 | |
| 20260505071559 | 58 | 105 | 0.0 | 0.0 | 0.07 | 0.01 | 0.01 | 46 | |
| 20260505061557 | 59 | 105 | 0.0 | 0.0 | 0.07 | 0.21 | 0.21 | 42 | |
| 20260505051556 | 59 | 114 | 0.0 | 0.0 | 0.00 | 0.17 | 0.17 | 36 | |
| 20260505041555 | 57 | 107 | 0.0 | 0.0 | 0.00 | 0.15 | 0.15 | 27 | |
| 20260505031554 | 56 | 88 | 0.0 | 8.0 | 0.00 | 0.15 | 0.15 | 18 | |
| 20260505021553 | 57 | 111 | 0.0 | 0.0 | 0.07 | 0.08 | 0.08 | 10 |